CST,Max TemperatureF,Mean TemperatureF,Min TemperatureF,Max Dew PointF,MeanDew PointF,Min DewpointF,Max Humidity, Mean Humidity, Min Humidity, Max Sea Level PressureIn, Mean Sea Level PressureIn, Min Sea Level PressureIn, Max VisibilityMiles, Mean VisibilityMiles, Min VisibilityMiles, Max Wind SpeedMPH, Mean Wind SpeedMPH, Max Gust SpeedMPH,PrecipitationIn, CloudCover, Events, WindDirDegrees
2013-1-1,35,28,21,27,22,19,93,80,60,30.22,30.15,30.04,10,10,7,16,10,21,0.00,2,,7
2013-1-2,41,31,21,28,22,18,93,76,45,30.30,30.21,30.15,10,10,7,12,5,,0.00,0,,331
2013-1-3,35,26,17,23,19,14,93,71,41,30.41,30.35,30.29,10,10,10,9,4,,0.00,1,,13
2013-1-4,33,28,23,30,27,19,93,86,74,30.37,30.29,30.17,10,10,7,15,7,20,0.00,7,Snow,225
2013-1-5,53,40,26,28,22,10,93,61,18,30.35,30.19,30.11,10,10,10,21,13,26,0.00,2,,300
2013-1-6,50,36,21,27,21,18,93,62,30,30.42,30.32,30.23,10,10,10,10,7,,0.00,0,,240
2013-1-7,50,37,24,27,23,19,86,61,32,30.22,30.10,29.99,10,10,10,14,6,16,0.00,0,,192
2013-1-8,51,38,26,37,30,21,100,77,58,30.13,29.98,29.92,10,10,4,15,6,,0.00,1,,224
2013-1-9,50,40,30,39,32,27,100,81,47,30.29,30.15,30.02,10,9,2,22,11,30,0.00,5,Rain,20
2013-1-10,50,42,35,43,38,36,100,87,71,30.06,29.89,29.79,10,8,2,17,11,20,0.01,5,Rain,285
2013-1-11,62,48,33,43,34,23,93,68,31,29.85,29.74,29.67,10,10,5,30,13,43,0.00,0,,237
2013-1-12,35,28,21,28,23,19,93,70,52,30.00,29.89,29.83,10,10,10,16,9,22,0.00,4,,15
2013-1-13,32,24,17,21,17,12,93,75,55,30.18,30.11,30.00,10,10,2,12,8,,0.00,2,Snow,41
2013-1-14,28,22,17,14,12,9,74,60,43,30.23,30.17,30.13,10,10,10,14,9,18,0.00,6,,91
2013-1-15,33,25,17,19,15,12,86,64,51,30.20,30.16,30.12,10,10,10,13,4,17,0.00,4,,353
2013-1-16,50,34,17,28,21,14,86,65,40,30.32,30.19,30.14,10,10,10,18,9,24,0.00,2,,311
2013-1-17,53,42,30,28,26,23,86,64,33,30.52,30.43,30.32,10,10,10,10,7,,0.00,0,,22
2013-1-18,59,44,30,32,27,25,87,62,29,30.43,30.27,30.13,10,10,7,22,9,28,0.00,0,,214
2013-1-19,60,45,30,28,22,14,86,50,16,30.27,30.15,30.07,10,10,10,15,9,21,0.00,0,,334
2013-1-20,62,42,23,27,20,12,80,47,14,30.26,30.16,30.05,10,10,10,16,6,20,0.00,0,,294
2013-1-21,44,34,23,28,25,19,93,71,49,30.33,30.23,30.16,10,10,10,15,8,20,0.00,0,,57
2013-1-22,62,42,23,32,25,19,87,56,20,30.20,30.15,30.09,10,10,10,16,8,21,0.00,0,,231
2013-1-23,69,48,28,30,23,16,87,50,14,30.21,30.15,30.12,10,10,10,10,5,16,0.00,0,,256
2013-1-24,77,54,30,28,21,10,70,36,8,30.19,30.10,30.01,10,10,10,23,9,26,0.00,0,,267
2013-1-25,55,42,30,32,29,27,93,53,33,30.20,30.13,30.02,10,9,3,14,8,20,0.00,0,,27
2013-1-26,62,47,32,45,34,27,87,64,39,30.16,30.05,29.95,10,10,10,15,5,18,0.00,1,Rain,182
2013-1-27,71,60,50,54,42,32,94,62,25,29.96,29.90,29.84,10,9,5,24,13,32,0.00,2,,231
2013-1-28,71,56,41,46,34,27,76,47,23,29.92,29.83,29.74,10,10,10,25,12,33,0.00,0,,226
2013-1-29,51,42,32,34,27,9,87,53,19,29.81,29.67,29.55,10,10,7,29,12,34,0.01,6,Rain-Snow-Thunderstorm,275
2013-1-30,46,35,24,23,12,0,75,46,15,30.09,30.01,29.82,10,10,10,20,14,29,0.00,0,,293
2013-1-31,59,42,24,27,17,9,75,43,14,30.26,30.11,30.01,10,10,10,16,10,21,0.00,0,,312